Weather History for Nagpur Sonegaon, India

Change the Weather History Date:

Thursday, March 14, 2013

  Actual Average Record
Temperature  
Mean Temperature 84 °F -  
Max Temperature 98 °F 101 °F - ()
Min Temperature 69 °F 71 °F - ()
Cooling Degree Days 18    
Growing Degree Days 34 (Base 50)    
Moisture  
Dew Point 58 °F    
Average Humidity 37    
Maximum Humidity 92    
Minimum Humidity 18    
Precipitation  
Precipitation 0.00 in 0.02 in - ()
Sea Level Pressure  
Sea Level Pressure 29.87 in    
Wind  
Wind Speed 4 mph ()    
Max Wind Speed 9 mph    
Max Gust Speed 18 mph    
Visibility 2.7 miles    
Events Rain , Thunderstorm    
T = Trace of Precipitation, MM = Missing Value Source: Averaged Metar Reports

Daily Weather History Graph

Daily Weather History Graph

Search for Another Location

Airport:

Trip Planner

Search our weather history database for the weather conditions in past years. The results will help you decide how hot, cold, wet, or windy it might be!

Date:

Astronomy

Mar. 14, 2013 Rise Set
Actual Time 6:23 AM IST 6:22 PM IST
Civil Twilight 6:01 AM IST 6:45 PM IST
Nautical Twilight 5:35 AM IST 7:10 PM IST
Astronomical Twilight 5:09 AM IST 7:36 PM IST
Moon 7:44 AM IST (3/14) 8:43 PM IST (3/14)
Length of Visible Light 12h 43m
Length of Day
11h 59m
Waxing Crescent, 6% of the Moon is Illuminated
Mar 14
Waxing Crescent
Mar 19
First Quarter
Mar 27
Full
Apr 3
Last Quarter
Apr 10
New

Hourly Weather History & Observations

Time (IST) Temp. Heat Index Dew Point Humidity Pressure Visibility Wind Dir Wind Speed Gust Speed Precip Events Conditions
1:10 AM 86.0 °F - 50.0 °F 29% 29.83 in 2.5 mi SW 9.2 mph 18.4 mph N/A   Haze
2:30 AM 70 °F - 68 °F 92% 29.83 in 1 mi East 6.9 mph - - Rain , Thunderstorm Thunderstorms and Rain
5:10 AM 78.8 °F - 57.2 °F 47% 29.86 in 2.5 mi East 4.6 mph - N/A   Haze
5:30 AM 77 °F - 57 °F 39% 29.84 in 1 mi East 4.6 mph - -   Haze
6:10 AM 78.8 °F - 57.2 °F 47% 29.89 in 2.5 mi East 4.6 mph - N/A   Haze
7:10 AM 77.0 °F - 59.0 °F 54% 29.92 in 2.5 mi ESE 3.5 mph - N/A   Haze
8:10 AM 77.0 °F - 60.8 °F 57% 29.92 in 2.5 mi East 3.5 mph - N/A   Haze
8:30 AM 75 °F - 64 °F 60% 29.90 in 2 mi East 4.6 mph - -   Haze
9:10 AM 84.2 °F 85.0 °F 62.6 °F 48% 29.95 in 2.5 mi East 3.5 mph - N/A   Haze
10:10 AM 89.6 °F 90.1 °F 62.6 °F 40% 29.95 in 3.1 mi ESE 4.6 mph - N/A   Haze
11:10 AM 93.2 °F 94.1 °F 62.6 °F 36% 29.95 in 3.1 mi SE 5.8 mph - N/A   Haze
11:30 AM 92 °F - 63 °F 28% 29.87 in 2 mi East 6.9 mph - -   Haze
12:10 PM 95.0 °F 95.2 °F 60.8 °F 32% 29.92 in 3.1 mi SE 5.8 mph - N/A   Haze
1:10 PM 98.6 °F 98.5 °F 59.0 °F 27% 29.89 in 3.1 mi SE 3.5 mph - N/A   Haze
2:10 PM 100.4 °F 99.7 °F 57.2 °F 24% 29.86 in 3.7 mi NNE 3.5 mph - N/A   Partly Cloudy
2:30 PM 97 °F - 60 °F 20% 29.77 in 2 mi Calm Calm - -   Clear
3:10 PM 102.2 °F 102.4 °F 59.0 °F 24% 29.83 in 3.7 mi North 3.5 mph - N/A   Unknown
4:10 PM 102.2 °F 100.9 °F 55.4 °F 21% 29.80 in 3.7 mi North 2.3 mph - N/A   Partly Cloudy
5:10 PM 100.4 °F - 50.0 °F 18% 29.80 in 3.7 mi SSE 4.6 mph - N/A   Partly Cloudy
5:30 PM 92 °F - 54 °F 18% 29.72 in 2 mi SE 3.5 mph - -   Scattered Clouds
6:10 PM 95.0 °F - 50.0 °F 22% 29.83 in 3.7 mi SSE 5.8 mph - N/A   Partly Cloudy
7:10 PM 89.6 °F 87.3 °F 53.6 °F 29% 29.86 in 3.1 mi SSE 4.6 mph - N/A   Haze
8:10 PM 86.0 °F 84.5 °F 55.4 °F 35% 29.89 in 3.1 mi SE 3.5 mph - N/A   Haze
8:30 PM 77 °F - 59 °F 43% 29.86 in 2 mi Calm Calm - -   Haze
9:10 PM 84.2 °F 83.0 °F 55.4 °F 37% 29.92 in 3.1 mi Calm Calm - N/A   Haze
10:10 PM 84.2 °F 83.0 °F 55.4 °F 37% 29.95 in 3.1 mi NNE 4.6 mph - N/A   Haze
11:10 PM 82.4 °F 81.7 °F 55.4 °F 39% 29.92 in 3.1 mi East 3.5 mph - N/A   Haze
11:30 PM 77 °F - 60 °F 45% 29.90 in 2 mi East 3.5 mph - -   Haze